Погода в Кошкупыре

Узбекистан     41°31′48″N   60°20′55″E
темп.,
°C
ветер,
м/с
пор.,
м/с
влажн.,
%
обл.,
%
осадки,
мм/ч
давл.,
гПа
погр.,
м
3 марта, ср
ср323:00+4в356066 0.0 1028168
02:00+4юв346364 0.0 1026112
05:00+3юв236681 0.0 102646
08:00+2юв3566100 0.0 1025119
11:00+6ююв455092 0.0 1025499
14:00+9ююз344538 0.0 1022978
17:00+11ю334319 0.0 10201204
20:00+9ююв33520 0.0 101966
4 марта, чт
чт423:00+8вюв465322 0.0 1018117
02:00+7юв595267 0.0 1016237
05:00+7ююв355583 0.0 1015144
08:00+6ююв465794 0.1 1016133
11:00+9сз796692 0.1 1019701
14:00+11ссз684642 0.0 10211342
17:00+11зсз883848 0.0 10231949
20:00+8сз585123 0.0 1026759
5 марта, пт
пт523:00+5с475312 0.0 1029341
02:00+3св23600 0.0 103066
05:00+2в33640 0.0 103046
08:00+2вюв47700 0.0 1029155
11:00+7вюв68570 0.0 1028690
14:00+11юв67370 0.0 10241395
17:00+12вюв673042 0.0 10211328
20:00+10всв61034100 0.0 1019616
6 марта, сб
сб623:00+8всв71242100 0.0 1019449
02:00+7св71146100 0.0 1017375
05:00+6св61049100 0.0 1016362
08:00+6ссв61051100 0.1 1017455
11:00+7св6943100 0.1 1020627
14:00+9ссв5635100 0.0 10191022
17:00+10с6731100 0.0 10191360
20:00+8с3634100 0.0 1020293
7 марта, вс
вс723:00+5св234481 0.0 102154
02:00+3вюв22510 0.0 102022
05:00+3юв33530 0.0 101933
08:00+3юв44540 0.0 101978
11:00+9ююв57340 0.0 1018587
14:00+12ююв672567 0.0 10151111
17:00+13ююв562483 0.0 10131162
20:00+11юв3430100 0.0 101492